Vertical_Velocity
-1 -1 -1 -0 1 2 1 -0 -1 -1 0 2 2 1 1 2 2 2 2 2 2 2 3 4 5 4 4 4 4 4 4 4 3 2 2 2 1 0 -0 -0 -0 -0 -0 1 1 0 -1 -1 -1 -1 -1 -1 -1 -1 -0 -0 -1 -0 2 5 5 4 2 1 1 -0 -1 2 6 9 10 6 2 1 5 7 9 9 8 5 4 4 2 -1 -1 -2
-0 -0 -1 -1 -0 0 1 1 -0 -1 -2 -0 1 2 2 2 3 4 5 5 4 3 1 1 3 4 4 3 3 3 3 3 2 2 2 1 1 0 -0 -0 -0 -0 -0 0 0 -0 -1 -1 -1 -1 -1 -1 -1 -1 -0 -0 -1 -0 3 6 6 4 1 -1 0 2 3 5 8 10 9 4 1 1 6 8 9 9 7 5 4 2 -1 -2 -2 -2
-0 1 1 0 -0 -0 -1 -0 0 -0 -1 -1 0 2 2 2 3 4 5 6 6 6 5 2 2 2 3 2 2 2 3 4 3 2 1 1 0 -0 -1 -1 -0 -0 0 -0 -0 -1 -1 -1 -1 -2 -2 -1 -1 -1 -0 -0 -1 -1 1 5 7 6 3 4 3 1 -1 0 4 7 9 4 2 4 7 7 5 2 -0 -1 -2 -2 -3 -3 -3 -3
-1 -0 0 1 1 0 -1 -1 -1 -1 -0 -1 -0 1 3 3 4 4 4 4 4 5 6 5 4 2 2 2 2 2 3 4 4 3 1 -0 -1 -1 -1 -1 -1 -1 -0 -1 -1 -2 -2 -2 -2 -2 -1 -1 -1 -1 -1 -1 -1 -2 -1 3 6 7 4 5 5 5 4 3 3 4 5 6 7 7 6 1 -1 -1 -2 -4 -6 -6 -6 -6 -5 -3
-1 -1 -1 1 1 1 1 1 -0 -1 -0 -0 -0 0 2 4 4 5 5 5 4 3 4 5 4 4 4 4 4 4 3 3 3 3 2 -0 -1 -2 -2 -2 -2 -2 -2 -2 -2 -2 -2 -2 -2 -1 -1 -1 -1 -1 -1 -1 -1 -2 -2 -1 0 1 -0 2 2 2 2 2 2 2 4 5 6 6 4 1 1 1 -1 -5 -8 -9 -9 -5 -3 -0
-0 -1 -3 -1 1 2 2 3 2 2 2 2 3 3 2 2 3 5 6 7 6 4 4 4 3 4 5 8 8 7 3 0 -0 0 1 0 -0 -1 -1 -1 -2 -2 -2 -2 -1 -1 -1 -1 -1 -1 -1 -1 -1 -1 -1 -1 -1 -1 -1 -2 -2 -3 -2 -1 -0 0 0 -0 -1 0 3 4 5 5 6 6 4 2 -3 -7 -9 -8 -2 3 4 2
2 1 -1 -1 -0 2 4 2 1 1 2 3 4 6 7 6 4 3 4 6 7 7 6 6 4 3 2 5 7 8 5 1 -1 -1 0 1 0 0 -0 -0 -0 -1 -1 -1 -1 -1 -1 -1 -1 -1 -1 -1 -1 -1 -0 -0 -0 -0 -0 -1 -2 -2 -2 -1 -1 -0 -0 -1 -1 1 4 5 7 8 7 6 3 -1 -6 -8 -6 -1 7 4 2 -0
1 3 4 1 0 2 6 6 2 -1 -2 -1 0 2 6 9 9 6 2 3 4 6 7 7 7 6 3 0 -0 2 4 3 1 -0 1 2 1 1 -0 -0 -0 0 -0 -0 -0 -1 -1 -1 -1 -1 -1 -1 -1 -0 -0 -0 -0 -0 -1 -2 -2 -2 -2 -1 -1 -1 -1 -1 -0 1 2 3 4 3 1 -2 -4 -6 -8 -6 -0 5 4 1 2 5
-0 1 3 4 2 1 2 7 8 7 1 -1 -2 -2 -2 2 8 12 12 6 3 2 2 2 3 6 8 4 -1 -4 -1 3 3 1 0 1 1 0 -1 -2 -1 -0 0 -0 -0 -1 -1 -1 -1 -0 -1 -0 -0 -0 -0 -1 -1 -1 -2 -2 -2 -1 -2 -1 -1 -1 -1 -1 -1 -1 -1 -1 -2 -3 -3 -4 -6 -6 -4 2 6 4 -0 3 5 6
0 0 0 1 2 1 -1 -0 4 8 9 6 4 1 -3 -6 -3 4 11 9 6 2 -0 -3 -4 -2 3 7 4 -1 -5 -1 2 3 2 1 -0 -0 -1 -2 -2 -1 -1 -0 -0 -0 -0 -0 -0 -0 -0 -0 -0 -0 -0 -1 -1 -1 -1 -1 -1 -1 -2 -1 -1 -1 -1 -2 -2 -2 -2 -2 -2 -3 -3 -4 -5 -4 -0 4 4 2 -0 1 1 0
-0 0 1 1 2 2 3 1 0 1 5 7 8 8 7 -1 -7 -9 -6 -1 2 4 3 2 -1 -5 -7 -1 2 2 -2 -2 -0 2 3 2 1 -0 -1 -1 -0 -0 0 0 0 0 0 0 1 1 0 -0 -0 -0 -0 -1 -1 -1 -1 -1 -1 -2 -2 -2 -2 -2 -3 -2 -2 -2 -2 -2 -2 -3 -3 -3 -3 -2 -0 1 1 1 -0 -1 -2 -3
-0 -0 0 2 3 4 4 5 5 5 4 4 4 6 7 6 1 -4 -8 -8 -6 -3 -0 3 4 2 -4 -6 -6 -4 -2 -2 -1 0 2 2 1 0 -1 -1 0 1 2 1 1 0 0 1 1 1 1 -0 -0 -1 -1 -1 -1 -1 -1 -1 -1 -1 -2 -2 -2 -2 -2 -2 -2 -2 -2 -2 -2 -2 -1 -1 -1 -1 -1 -0 -0 -1 -1 -2 -3 -3
1 2 2 2 3 4 5 5 5 5 5 3 1 0 -0 2 2 1 -1 -2 -3 -4 -5 -2 1 3 3 -1 -4 -6 -6 -5 -3 -0 2 1 0 -1 -2 -2 -1 0 1 1 0 0 0 -0 -0 -0 -0 -1 -1 -2 -2 -2 -2 -1 -1 -1 -1 -1 -1 -2 -2 -2 -2 -2 -2 -1 -1 -1 -1 -0 -0 -0 -0 -0 -1 -1 -1 -2 -3 -3 -2 -2
2 3 4 4 4 3 4 4 4 3 1 0 -1 -2 -2 -2 -2 -3 -4 -1 -0 -0 -2 -2 -0 2 2 -0 -2 -2 -2 -5 -5 -2 2 3 1 -1 -2 -2 -1 -0 0 -0 -0 -1 -1 -1 -2 -2 -2 -2 -3 -3 -3 -2 -2 -1 -1 -1 -1 -1 -1 -1 -2 -2 -1 -1 -0 -0 0 1 1 1 1 0 -0 -1 -1 -2 -2 -2 -2 -2 -1 -1
2 2 2 1 1 1 1 1 1 1 2 2 0 -1 -2 -0 1 0 -3 -4 -2 -1 -1 -0 2 6 8 1 -4 -5 -0 -1 -3 -3 0 3 2 -0 -2 -1 -1 -1 -0 -1 -1 -1 -1 -2 -3 -4 -4 -4 -4 -4 -3 -3 -2 -1 -1 -1 -1 -1 -1 -1 -1 -0 -0 1 1 2 2 1 1 0 -0 -0 -1 -1 -1 -2 -2 -2 -1 -1 -0 -1
1 2 1 -0 -1 -1 0 0 -1 -2 -2 -0 0 -0 -2 -2 1 4 3 -0 -2 -2 -2 -4 -3 2 9 9 3 -3 -4 -2 -2 -2 -0 2 2 0 -1 -2 -2 -2 -1 -1 -1 -1 -2 -2 -3 -4 -4 -4 -4 -4 -3 -3 -2 -2 -2 -2 -1 -1 -1 -0 0 1 2 2 2 1 1 0 -0 -1 -1 -1 -1 -1 -1 -1 -1 -1 -1 -1 -1 -1
-1 -1 0 0 -1 -2 -2 1 2 1 -2 -2 -2 -1 -1 -3 -3 -1 1 -0 -1 -1 -1 -3 -6 -7 -5 4 6 3 -3 -3 -3 -2 -1 1 1 1 -1 -2 -3 -3 -1 -1 -1 -1 -2 -3 -4 -4 -4 -4 -3 -3 -2 -2 -2 -2 -2 -1 -1 -0 0 1 1 2 2 1 0 -0 -1 -1 -1 -1 -1 -1 -1 -1 -1 -1 -1 -1 -1 -0 -0 -1
-2 -1 -0 1 1 -1 -4 -3 -1 1 2 0 -0 0 2 2 0 -1 -1 -1 -1 -2 -2 -0 -2 -5 -9 -6 -2 0 -1 -2 -3 -4 -2 -1 0 0 -0 -1 -2 -2 -0 1 1 -0 -2 -4 -4 -5 -4 -4 -3 -2 -2 -2 -1 -1 -1 -1 -0 0 1 1 1 1 -0 -1 -1 -1 -2 -2 -1 -1 -1 -1 -1 -1 -1 -1 -1 -0 -0 -0 -1 -1
-3 -2 -2 -0 1 2 -0 -4 -5 -5 -2 -1 -1 -1 -0 2 2 2 1 2 1 0 -1 -1 -2 -2 -3 -4 -4 -3 -2 -2 -3 -4 -4 -2 -1 -0 -1 -1 -1 0 2 2 1 -1 -3 -4 -4 -4 -4 -3 -2 -1 -1 -1 -1 -0 -0 0 0 0 0 -0 -1 -1 -1 -2 -2 -2 -2 -1 -1 -1 -1 -0 -0 -0 -0 -0 -0 -0 -0 -0 -1 -1
-1 -2 -3 -3 -2 -0 1 -0 -3 -5 -4 -3 -2 -2 -3 -2 -1 -1 -1 1 2 3 2 0 -1 -3 -3 -3 -4 -4 -2 -2 -3 -4 -4 -2 -0 0 -0 -1 -1 0 3 3 1 -2 -4 -5 -4 -3 -2 -1 -0 -0 0 0 -0 -0 -0 -0 -1 -1 -1 -1 -2 -2 -2 -2 -2 -1 -1 -1 -1 -1 -0 -0 -0 -0 -0 -0 -0 -0 -0 -0 -1 -1
0 0 0 -1 -3 -3 -2 -2 -3 -4 -4 -3 -2 -1 -1 -0 -0 -1 -2 -1 -0 1 1 -0 -1 -3 -3 -4 -4 -5 -4 -3 -4 -4 -4 -2 0 2 1 -0 -1 0 2 1 -1 -3 -4 -4 -4 -2 -1 -0 -0 0 0 -0 -1 -1 -1 -1 -2 -2 -2 -2 -2 -2 -2 -1 -1 -1 -0 -0 -0 -0 -0 -0 -0 -0 -0 -0 -0 -0 -0 -0 -0 -1
-2 -1 -1 0 -1 -2 -3 -4 -5 -6 -6 -5 -3 -2 -1 -0 -0 -1 -1 -1 -1 -1 -0 -1 -2 -3 -4 -4 -4 -5 -4 -4 -4 -4 -4 -2 0 2 1 -0 -0 0 1 -1 -2 -3 -3 -3 -2 -1 -1 -1 -1 -1 -1 -1 -2 -2 -2 -2 -2 -2 -2 -2 -2 -1 -1 -1 -0 -0 0 -0 -0 -0 -0 -0 -0 -0 -0 -0 -0 -0 -0 -0 -0 -1
-1 -1 -2 -1 -1 -1 -1 -3 -5 -6 -6 -5 -4 -2 -1 -1 -2 -3 -3 -2 -1 -1 -1 -1 -2 -3 -4 -5 -5 -4 -3 -2 -2 -3 -3 -2 -1 0 -0 -0 0 1 0 -3 -4 -3 -2 -2 -1 -1 -1 -1 -2 -2 -2 -2 -2 -2 -2 -2 -1 -1 -1 -1 -1 -1 -0 -0 0 0 0 -0 -0 -0 -0 -0 -0 -0 -0 -0 -0 -0 -0 -0 -0 -0
0 -0 -0 -1 -1 -1 -1 -1 -4 -6 -7 -6 -4 -1 1 -0 -2 -4 -5 -4 -4 -3 -3 -3 -2 -1 -1 -2 -3 -3 -2 -1 -1 -1 -1 -1 -0 -0 -1 -1 -1 -0 -0 -3 -4 -3 -2 -1 -1 -1 -2 -2 -2 -2 -2 -2 -2 -1 -1 -1 -1 -1 -1 -1 -1 -0 -0 -0 -0 -0 -0 -0 -0 -0 -0 -1 -0 -0 -0 -0 -0 -0 -0 -0 -0 0
-2 -2 -2 -2 -2 -1 -1 -1 -2 -4 -7 -8 -6 -2 2 2 1 -1 -3 -3 -3 -3 -2 -2 -1 -0 1 2 1 -0 -0 -0 -0 -1 -1 -2 -1 0 0 -1 -1 -1 -1 -3 -3 -2 -1 -1 -1 -1 -2 -2 -2 -2 -2 -1 -1 -1 -1 -1 -1 -1 -1 -1 -1 -1 -1 -1 -1 -1 -1 -1 -1 -1 -1 -1 -1 -1 -1 -0 -0 -0 -0 -0 -0 -0
-4 -4 -4 -4 -3 -2 -2 -1 -1 -2 -3 -6 -6 -5 -1 2 2 1 -1 -1 -1 -0 0 0 0 0 1 1 1 0 -0 -0 -0 -0 -1 -2 -2 -1 0 -0 -0 -0 -1 -3 -3 -2 -0 -0 -0 -1 -1 -1 -1 -1 -1 -1 -1 -1 -1 -1 -2 -2 -2 -2 -2 -2 -1 -1 -1 -1 -1 -1 -1 -1 -1 -1 -1 -1 -1 -1 -0 -0 -0 0 0 0
-3 -3 -3 -3 -2 -1 -1 -1 -1 -0 -0 -1 -3 -3 -2 0 2 2 0 -1 -1 -0 -0 0 1 1 -0 -0 -1 -1 -2 -2 -1 -1 -1 -2 -2 -2 -1 -1 -0 0 0 -3 -4 -4 -2 -1 -0 -1 -1 -1 -1 -1 -1 -2 -2 -2 -2 -2 -2 -2 -2 -2 -2 -2 -1 -1 -1 -1 -1 -1 -1 -1 -1 -1 -1 -1 -1 -1 -0 -0 0 1 1 1
-4 -3 -3 -3 -2 -1 -0 -0 -0 0 1 0 -0 -1 -1 -1 0 1 0 -1 -1 -1 -2 -1 -1 -1 -1 -1 -1 -1 -2 -3 -2 -1 -0 -1 -1 -2 -2 -1 -1 0 1 -0 -3 -4 -4 -2 -1 -1 -1 -1 -1 -1 -1 -2 -2 -2 -2 -2 -2 -2 -2 -2 -2 -2 -1 -2 -2 -2 -1 -1 -1 -1 -1 -1 -1 -1 -1 -1 -1 -0 0 1 1 1
-4 -4 -3 -4 -3 -2 -1 -0 0 0 0 0 0 0 -0 -1 -1 -1 -0 -1 -1 -2 -2 -2 -2 -2 -2 -1 -0 0 0 -1 -1 -1 -1 -1 -1 -1 -1 -1 -1 -0 2 3 1 -1 -4 -3 -2 -1 -1 -1 -1 -1 -1 -1 -1 -1 -1 -2 -2 -2 -2 -2 -2 -2 -2 -2 -2 -1 -1 -1 -1 -1 -0 -0 -0 -0 -0 -1 -0 -0 0 1 1 0
1 -0 -0 -1 -1 -1 -0 0 0 0 -0 -0 0 0 0 -1 -1 -2 -2 -2 -2 -2 -2 -2 -2 -3 -3 -3 -2 -1 -0 -0 -1 -1 -2 -2 -2 -1 -1 -1 -2 -2 -1 2 3 2 -1 -2 -2 -2 -1 -1 -1 -1 -0 -0 -0 -0 -0 -1 -1 -1 -1 -1 -1 -1 -1 -1 -1 -1 -1 -1 -1 -0 -0 -0 0 0 -0 -0 -1 -0 -0 0 0 -0
2 1 1 1 0 1 1 2 1 0 -1 -1 -0 -0 0 -0 -1 -2 -2 -2 -3 -3 -3 -2 -2 -3 -3 -4 -6 -6 -4 -2 -1 -2 -2 -2 -2 -2 -2 -2 -2 -3 -4 -3 -1 0 1 -0 -2 -2 -2 -2 -2 -1 -1 -0 0 0 1 0 0 0 -0 -0 -0 -0 -0 -0 -0 -0 -0 0 0 0 0 0 0 0 0 -0 -1 -1 -1 -1 -1 -0
-0 -1 -1 -1 -1 -0 1 2 2 0 -1 -1 -0 -0 -0 -1 -1 -1 -2 -2 -3 -3 -3 -2 -2 -2 -2 -3 -4 -5 -6 -4 -3 -2 -2 -2 -1 -1 -1 -1 -1 -2 -3 -4 -4 -3 -2 -0 -1 -2 -3 -2 -2 -2 -1 -1 -0 0 1 1 1 1 1 1 1 1 1 1 2 2 2 2 2 1 1 1 1 1 1 -0 -1 -2 -2 -2 -2 -1
-2 -2 -2 -2 -2 -1 1 1 0 -1 -2 -1 -1 -0 -1 -1 -1 -1 -2 -2 -2 -3 -3 -2 -2 -2 -1 -1 -1 -1 -2 -2 -2 -2 -2 -1 -1 -1 -0 -0 -0 -0 -0 -1 -2 -2 -3 -2 -1 -1 -2 -3 -3 -3 -2 -2 -1 -0 0 0 1 1 1 1 1 1 2 2 2 3 3 3 3 2 2 2 1 1 1 1 -0 -1 -2 -3 -2 -2
-2 -3 -3 -3 -3 -1 0 1 -1 -2 -3 -1 -1 -0 -1 -1 -1 -1 -2 -2 -2 -3 -3 -3 -3 -3 -3 -2 -1 -1 -0 -1 -1 -1 -1 -1 -1 -1 -1 -0 -0 0 1 0 -0 -1 -1 -2 -1 -1 -0 -1 -2 -3 -3 -2 -2 -1 -1 -0 -0 0 1 1 1 1 2 2 2 2 2 3 2 2 2 1 1 1 1 1 1 0 -1 -2 -2 -2
-2 -2 -3 -3 -2 -1 1 1 -0 -2 -3 -2 -1 -1 -1 -1 -1 -1 -2 -2 -2 -3 -3 -3 -4 -4 -4 -4 -4 -3 -2 -1 -1 -1 -1 -1 -1 -1 -1 -1 -1 -0 0 0 0 -0 -1 -1 -1 -1 0 1 1 -1 -2 -3 -2 -2 -1 -1 -1 -0 0 0 0 1 1 1 1 1 1 1 1 1 1 1 0 0 -0 0 1 1 1 0 -1 -1
-1 -1 -2 -2 -2 -1 1 1 -0 -1 -2 -1 -1 -1 -1 -1 -1 -1 -2 -2 -2 -3 -3 -4 -4 -4 -5 -5 -4 -4 -3 -2 -1 -1 -1 -1 -2 -2 -2 -2 -1 -1 -1 -0 -0 -0 -0 -1 -1 -1 -1 1 2 2 1 -1 -2 -2 -1 -1 -1 -0 -0 -0 -0 -0 -0 -0 -1 -1 -2 -2 -1 -1 0 1 1 1 0 0 1 1 2 2 2 1
-0 -0 -1 -2 -1 -1 0 0 -0 -1 -1 -1 -1 -1 -1 -1 -1 -1 -2 -2 -3 -3 -3 -4 -4 -4 -5 -5 -4 -4 -3 -3 -2 -1 -1 -1 -1 -2 -2 -2 -2 -2 -2 -1 -1 -1 -0 0 0 0 -0 -0 -0 1 1 1 -1 -2 -2 -1 -1 -1 -1 -0 -0 -0 -0 -1 -2 -3 -4 -4 -3 -2 -0 1 2 2 2 2 2 2 3 4 4 4
-0 -0 -0 -1 -1 -0 0 -0 -1 -1 -1 -1 -1 -1 -1 -1 -1 -2 -2 -2 -3 -3 -3 -3 -4 -4 -4 -4 -4 -4 -4 -3 -2 -2 -1 -1 -1 -1 -1 -1 -1 -2 -2 -2 -1 -1 -1 -1 -0 -0 0 -0 -0 -0 0 0 -0 -1 -1 -1 -1 -1 -0 -0 0 0 -0 -0 -1 -2 -3 -4 -4 -3 -1 0 2 2 3 3 3 3 3 4 4 5
-1 -1 -1 -1 -1 -0 0 0 -0 -1 -1 -1 -1 -1 -1 -2 -2 -2 -2 -3 -3 -3 -3 -3 -3 -3 -3 -4 -4 -4 -4 -3 -2 -1 -1 -1 -1 -1 -0 -1 -1 -1 -1 -1 -1 -1 -1 -1 -1 -1 -1 -0 -0 -0 0 0 0 1 1 1 0 0 0 0 0 -0 -1 -1 -1 -2 -2 -3 -3 -4 -3 -2 -1 -0 1 2 2 2 2 3 4 5
-0 -0 -1 -1 -1 -1 -0 -0 -0 -1 -1 -1 -1 -1 -2 -2 -2 -3 -3 -3 -2 -2 -2 -2 -2 -2 -3 -4 -4 -4 -4 -2 -2 -1 -1 -1 -0 -0 -0 -0 -1 -1 -1 -1 -1 -1 -1 -1 -1 -1 -1 -1 -1 -1 -1 -1 -0 0 1 1 1 -0 -0 -1 -1 -1 -1 -1 -1 -1 -1 -2 -3 -4 -4 -4 -3 -3 -2 -1 -0 -0 0 -0 0 1
-1 -1 -1 -1 -1 -1 -1 -1 -1 -1 -1 -1 -1 -2 -2 -2 -2 -2 -2 -1 -1 -0 -0 0 1 0 -0 -2 -4 -4 -4 -3 -1 -1 -1 -0 -0 0 0 -0 -0 -1 -1 -1 -1 -1 -1 -1 -1 -1 -1 -1 -2 -2 -2 -2 -1 -1 -1 0 1 1 0 -1 -2 -2 -2 -1 0 0 0 -1 -3 -4 -5 -4 -4 -3 -3 -3 -2 -2 -1 -1 -2 -3
-2 -1 -1 -1 -1 -1 -1 -1 -1 -1 -2 -2 -2 -2 -2 -2 -2 -1 -1 -1 -0 -0 -0 0 1 1 2 1 -1 -4 -4 -3 -1 -1 -0 -0 -0 0 0 0 -0 -0 -1 -1 -1 -2 -2 -1 -1 -1 -1 -1 -1 -2 -2 -2 -2 -2 -1 -0 1 2 2 2 1 -0 -1 -0 1 2 2 0 -2 -4 -6 -5 -4 -3 -3 -3 -3 -3 -3 -2 -2 -3
-1 -1 -1 -1 -1 -1 -1 -1 -1 -2 -2 -2 -2 -2 -2 -2 -2 -1 -1 -1 -1 -1 -1 -1 -0 1 1 1 -0 -2 -4 -3 -2 -1 -1 -0 0 0 1 0 0 -0 -0 -1 -1 -2 -3 -2 -2 -1 -1 -1 -1 -1 -1 -1 -1 -1 -2 -3 -4 -5 -6 -3 -1 0 1 1 1 2 3 2 1 -1 -4 -4 -4 -3 -2 -1 -1 -2 -2 -2 -2 -2
-1 -1 -1 -2 -2 -1 -1 -1 -2 -2 -2 -2 -2 -2 -2 -2 -2 -2 -2 -2 -2 -2 -1 -0 0 1 2 2 0 -1 -3 -3 -3 -2 -2 -1 -1 -0 0 0 1 0 -0 -1 -1 -2 -2 -2 -2 -1 -1 -1 -1 -1 -0 -0 -0 -1 -2 -4 -5 -6 -6 -6 -4 -2 -0 1 1 2 2 3 3 2 0 -2 -3 -3 -2 -0 0 0 -0 -0 -1 -1
-2 -2 -1 -2 -2 -2 -2 -1 -2 -2 -2 -2 -2 -2 -1 -1 -2 -2 -2 -2 -2 -2 -2 -1 -1 0 2 2 1 -0 -1 -2 -3 -3 -3 -2 -2 -1 -1 -0 0 1 0 -1 -2 -2 -2 -1 -1 -1 -1 -1 -1 -1 0 0 0 -0 -1 -2 -2 -2 -2 -2 -3 -2 -2 -1 -0 0 1 2 3 3 2 -0 -2 -3 -3 -1 -0 0 0 0 -0 -1
-2 -2 -1 -2 -2 -2 -2 -2 -2 -2 -2 -2 -1 -1 -1 -1 -2 -3 -3 -2 -2 -1 -1 -1 -1 -1 -0 0 1 1 0 -0 -1 -2 -2 -2 -2 -2 -2 -1 -0 0 0 -1 -1 -2 -1 -1 -0 -0 -1 -1 -1 -1 -0 -0 -0 -1 -1 -0 0 1 1 0 -0 -1 -1 -2 -1 -0 1 3 4 4 4 2 0 -1 -2 -2 -1 -1 -1 -1 -1 -1
-1 -1 -1 -1 -2 -2 -2 -2 -2 -2 -2 -2 -1 -1 -1 -1 -2 -2 -2 -2 -1 -1 -1 -1 -1 -1 -1 -0 -0 -0 0 0 -0 -0 -1 -2 -2 -2 -2 -2 -2 -1 0 -0 -1 -1 -1 -0 -0 0 0 -0 -0 -0 -1 -1 -2 -1 -1 -0 1 2 2 2 1 1 -0 -1 -1 -2 -2 -1 0 2 4 4 3 2 0 -0 -0 -0 -1 -1 -1 -1
-1 -1 -1 -1 -1 -2 -2 -2 -2 -2 -2 -1 -1 -1 -1 -2 -2 -2 -2 -1 -1 -1 -1 -0 -0 -0 -0 -0 -1 -1 -1 -1 -0 -0 -1 -1 -1 -2 -2 -3 -3 -2 -1 -0 0 0 0 0 0 0 0 1 1 0 -1 -2 -2 -2 -1 -0 1 1 2 2 2 2 2 1 0 -1 -2 -3 -3 -2 -1 1 2 2 2 1 1 1 1 -1 -1 -2
-2 -2 -1 -1 -1 -1 -2 -2 -2 -2 -2 -2 -2 -2 -2 -2 -3 -3 -2 -2 -2 -1 -1 -1 -1 -0 -0 -0 -1 -1 -1 -1 -1 -1 -0 -0 -1 -1 -2 -3 -3 -3 -3 -1 -0 1 1 1 0 1 1 1 1 0 -0 -1 -1 -0 -0 0 1 1 2 2 2 2 2 2 2 2 1 -1 -1 -2 -2 -2 -1 1 2 2 2 2 2 1 -0 -1
-3 -2 -2 -1 -1 -1 -2 -2 -2 -2 -2 -2 -2 -2 -2 -3 -3 -3 -2 -2 -2 -2 -2 -2 -1 -1 -1 -1 -1 -1 -0 -0 -0 -0 -0 -0 -0 -1 -1 -1 -2 -3 -3 -3 -2 -1 -0 0 1 1 1 1 0 0 0 1 2 2 1 1 1 2 2 3 3 2 2 1 1 1 2 1 -1 -2 -3 -2 -1 1 2 2 3 3 3 4 3 2
-3 -3 -3 -2 -2 -2 -2 -2 -2 -2 -2 -2 -2 -2 -3 -3 -3 -2 -2 -1 -1 -1 -2 -2 -2 -2 -1 -1 -1 -1 -1 -0 -0 -0 -0 -1 -1 -1 -1 -1 -1 -1 -1 -2 -2 -2 -2 -1 -0 0 0 0 0 0 0 1 1 2 2 1 1 1 2 3 3 3 2 1 1 0 -0 -1 -1 -2 -2 -2 -1 -1 -0 1 1 2 2 3 4 4
Height
3039 3037 3035 3033 3031 3029 3027 3025 3023 3021 3019 3017 3015 3013 3011 3010 3008 3006 3004 3002 3000 2998 2996 2994 2992 2990 2989 2987 2985 2983 2980 2979 2977 2975 2973 2970 2968 2966 2964 2962 2960 2957 2955 2954 2952 2950 2947 2946 2944 2942 2941 2939 2938 2937 2935 2934 2933 2932 2931 2930 2929 2928 2926 2925 2924 2923 2922 2921 2920 2920 2919 2918 2916 2915 2915 2914 2913 2911 2910 2908 2907 2906 2904 2903 2902 2901
3036 3034 3032 3031 3029 3027 3025 3022 3020 3019 3017 3015 3013 3010 3009 3007 3005 3003 3001 2999 2997 2995 2993 2991 2989 2987 2985 2983 2981 2980 2977 2975 2974 2971 2969 2967 2965 2962 2960 2958 2955 2953 2951 2950 2948 2946 2944 2942 2941 2939 2938 2936 2935 2934 2932 2931 2930 2929 2929 2928 2926 2925 2923 2922 2920 2920 2919 2918 2917 2917 2915 2914 2912 2912 2911 2910 2909 2908 2906 2905 2903 2902 2900 2899 2899 2898
3034 3032 3030 3028 3027 3025 3023 3020 3018 3015 3014 3012 3010 3008 3006 3004 3002 3000 2999 2996 2994 2992 2990 2988 2986 2984 2982 2980 2978 2976 2975 2972 2970 2968 2965 2963 2960 2958 2956 2954 2952 2950 2948 2946 2944 2942 2941 2939 2938 2936 2935 2933 2932 2930 2929 2928 2926 2925 2925 2924 2923 2922 2920 2918 2917 2915 2915 2914 2914 2913 2912 2910 2909 2909 2908 2906 2905 2904 2902 2901 2900 2898 2897 2896 2895 2895
3032 3030 3027 3025 3024 3022 3020 3018 3016 3013 3011 3009 3007 3005 3003 3001 2999 2997 2995 2994 2991 2989 2987 2985 2983 2980 2979 2977 2975 2974 2971 2969 2966 2964 2961 2959 2956 2954 2952 2950 2948 2946 2944 2942 2941 2939 2937 2936 2934 2933 2931 2930 2928 2927 2925 2924 2923 2921 2920 2920 2920 2918 2916 2915 2914 2912 2912 2911 2910 2909 2908 2907 2906 2905 2904 2902 2901 2900 2898 2897 2895 2895 2893 2893 2892 2892
3030 3027 3025 3023 3021 3019 3017 3015 3013 3010 3008 3006 3004 3002 3000 2998 2996 2994 2992 2990 2988 2986 2984 2982 2980 2978 2975 2974 2972 2970 2968 2965 2963 2960 2957 2955 2952 2950 2948 2946 2944 2942 2941 2939 2937 2936 2934 2933 2931 2930 2928 2926 2925 2923 2922 2920 2919 2918 2916 2915 2915 2913 2912 2911 2910 2909 2908 2907 2907 2906 2905 2904 2903 2901 2900 2898 2897 2895 2894 2892 2891 2890 2890 2890 2889 2889
3027 3025 3023 3021 3019 3017 3015 3013 3010 3007 3005 3003 3001 2999 2997 2995 2993 2991 2989 2986 2985 2983 2981 2979 2977 2975 2973 2971 2969 2966 2964 2961 2959 2956 2954 2951 2949 2947 2945 2943 2941 2939 2937 2936 2934 2933 2931 2929 2928 2926 2925 2923 2921 2920 2918 2917 2915 2914 2912 2911 2910 2909 2908 2907 2906 2905 2904 2903 2902 2902 2902 2901 2899 2898 2896 2895 2893 2891 2890 2888 2888 2888 2888 2887 2886 2885
3025 3023 3021 3019 3016 3014 3013 3010 3008 3005 3002 3000 2997 2995 2994 2992 2990 2989 2986 2984 2982 2979 2977 2975 2973 2971 2970 2968 2965 2962 2959 2956 2954 2952 2950 2948 2946 2944 2942 2940 2938 2936 2935 2933 2931 2930 2928 2926 2925 2923 2921 2919 2918 2916 2915 2913 2912 2910 2909 2907 2906 2905 2904 2903 2902 2901 2900 2899 2899 2898 2898 2897 2895 2894 2893 2891 2890 2888 2886 2885 2885 2886 2885 2884 2883 2882
3022 3020 3018 3016 3014 3011 3009 3007 3005 3002 2999 2996 2994 2992 2990 2988 2986 2985 2983 2981 2979 2976 2973 2970 2968 2965 2964 2962 2960 2958 2954 2951 2950 2948 2946 2944 2943 2941 2939 2937 2935 2934 2932 2930 2928 2926 2925 2923 2921 2919 2917 2915 2914 2912 2911 2910 2908 2906 2905 2903 2902 2901 2900 2899 2898 2897 2896 2896 2896 2895 2893 2892 2891 2890 2888 2887 2885 2884 2883 2884 2884 2883 2881 2880 2880 2879
3020 3018 3015 3013 3011 3009 3006 3003 3000 2998 2995 2993 2990 2988 2986 2984 2981 2979 2978 2976 2975 2972 2970 2966 2964 2960 2958 2956 2955 2953 2951 2948 2946 2944 2943 2941 2939 2938 2936 2934 2933 2931 2929 2927 2925 2924 2921 2920 2918 2916 2914 2912 2910 2909 2907 2905 2904 2902 2901 2900 2899 2898 2896 2895 2895 2894 2893 2892 2892 2891 2889 2888 2887 2886 2885 2884 2882 2882 2881 2882 2881 2879 2878 2878 2877 2876
3017 3015 3013 3010 3008 3005 3003 3001 2998 2995 2992 2989 2986 2984 2983 2980 2978 2975 2973 2970 2968 2966 2964 2962 2960 2958 2955 2952 2950 2949 2947 2945 2943 2941 2940 2938 2936 2935 2933 2931 2929 2928 2926 2924 2922 2920 2918 2916 2914 2912 2910 2908 2907 2905 2903 2902 2900 2899 2898 2897 2895 2894 2893 2892 2891 2890 2890 2889 2888 2887 2886 2885 2884 2883 2882 2881 2880 2879 2880 2879 2877 2876 2875 2875 2874 2873
3014 3012 3009 3007 3004 3001 2999 2997 2995 2992 2990 2987 2984 2981 2978 2976 2974 2972 2969 2966 2963 2961 2959 2957 2956 2955 2953 2950 2946 2944 2943 2941 2940 2938 2937 2935 2934 2932 2930 2928 2927 2925 2923 2921 2919 2917 2915 2913 2911 2909 2907 2905 2904 2902 2900 2899 2898 2896 2895 2894 2892 2891 2890 2889 2888 2887 2886 2885 2885 2884 2883 2882 2881 2880 2879 2878 2877 2877 2876 2875 2875 2874 2873 2872 2870 2870
3011 3009 3006 3004 3001 2999 2996 2993 2991 2988 2986 2984 2981 2978 2974 2971 2969 2967 2965 2962 2960 2958 2956 2954 2952 2951 2950 2947 2944 2941 2940 2938 2936 2935 2933 2932 2931 2929 2927 2925 2924 2922 2920 2918 2916 2914 2912 2910 2908 2906 2904 2902 2901 2899 2898 2896 2895 2893 2892 2891 2890 2889 2887 2886 2885 2885 2884 2883 2882 2881 2880 2880 2879 2878 2877 2876 2875 2875 2874 2873 2872 2871 2870 2869 2868 2867
3009 3006 3004 3001 2999 2996 2994 2990 2987 2984 2981 2979 2976 2974 2971 2968 2965 2964 2961 2959 2957 2955 2954 2952 2950 2948 2946 2944 2942 2939 2937 2935 2933 2932 2930 2929 2928 2926 2924 2922 2920 2919 2917 2915 2913 2911 2909 2907 2905 2903 2901 2900 2898 2897 2895 2894 2892 2891 2890 2889 2887 2886 2885 2884 2883 2883 2882 2881 2880 2880 2879 2878 2877 2876 2875 2874 2873 2872 2871 2870 2869 2868 2867 2866 2865 2865
3006 3003 3000 2998 2995 2993 2990 2987 2984 2980 2977 2975 2972 2970 2968 2965 2963 2961 2959 2956 2954 2953 2951 2950 2947 2946 2944 2942 2939 2936 2934 2932 2930 2929 2928 2927 2925 2923 2920 2918 2917 2915 2914 2911 2910 2908 2906 2904 2902 2900 2899 2897 2895 2894 2893 2891 2890 2889 2888 2887 2885 2885 2884 2883 2882 2881 2880 2880 2879 2878 2877 2876 2875 2874 2873 2872 2871 2870 2869 2868 2867 2866 2865 2864 2863 2862
3003 3000 2997 2994 2991 2988 2985 2983 2980 2977 2974 2971 2969 2967 2964 2962 2959 2957 2956 2954 2952 2950 2948 2947 2945 2943 2942 2940 2938 2935 2931 2929 2927 2926 2925 2924 2923 2920 2918 2915 2914 2912 2911 2909 2907 2905 2903 2901 2899 2897 2896 2895 2893 2892 2890 2889 2888 2887 2886 2885 2884 2883 2882 2881 2880 2880 2879 2878 2877 2876 2875 2875 2873 2872 2871 2870 2869 2868 2867 2866 2865 2864 2863 2863 2862 2861
2999 2996 2993 2990 2987 2984 2981 2979 2976 2974 2971 2968 2966 2964 2962 2960 2957 2955 2953 2951 2949 2947 2945 2944 2942 2940 2938 2937 2935 2933 2930 2927 2925 2924 2923 2921 2920 2918 2915 2913 2911 2910 2908 2906 2905 2902 2900 2899 2897 2895 2894 2892 2891 2890 2889 2887 2886 2885 2884 2883 2882 2881 2880 2880 2879 2878 2878 2877 2876 2875 2874 2873 2871 2870 2869 2868 2867 2866 2865 2864 2863 2862 2861 2861 2860 2859
2995 2992 2989 2986 2983 2980 2978 2975 2973 2970 2968 2965 2963 2961 2959 2957 2955 2953 2951 2949 2947 2945 2943 2941 2939 2937 2935 2933 2931 2930 2928 2925 2923 2921 2920 2919 2917 2915 2913 2911 2909 2908 2906 2905 2903 2900 2898 2896 2895 2893 2891 2890 2889 2888 2887 2886 2885 2884 2883 2882 2881 2880 2879 2879 2878 2877 2876 2875 2874 2873 2872 2871 2870 2869 2868 2866 2865 2865 2864 2863 2862 2861 2860 2859 2858 2858
2991 2989 2986 2983 2980 2977 2975 2973 2970 2967 2965 2962 2960 2958 2956 2954 2953 2951 2949 2947 2945 2942 2940 2938 2936 2935 2932 2930 2928 2926 2925 2923 2920 2919 2918 2917 2915 2913 2911 2910 2908 2906 2905 2903 2901 2899 2897 2895 2893 2891 2890 2889 2888 2887 2885 2885 2884 2883 2882 2881 2880 2879 2878 2877 2876 2875 2875 2873 2872 2871 2870 2869 2868 2867 2866 2865 2865 2864 2862 2862 2861 2860 2859 2858 2857 2856
2988 2985 2983 2980 2977 2974 2972 2970 2968 2965 2963 2960 2958 2956 2954 2952 2950 2948 2946 2944 2942 2940 2938 2936 2934 2932 2930 2928 2926 2924 2922 2920 2919 2917 2916 2915 2913 2911 2910 2908 2907 2905 2904 2902 2900 2897 2895 2893 2891 2890 2889 2888 2887 2886 2885 2884 2883 2882 2881 2880 2879 2878 2877 2876 2875 2874 2873 2872 2871 2870 2869 2868 2867 2866 2865 2865 2864 2863 2862 2860 2860 2859 2858 2857 2856 2855
2985 2982 2980 2978 2975 2972 2969 2966 2965 2963 2960 2958 2955 2953 2952 2950 2948 2946 2944 2942 2940 2938 2936 2935 2932 2930 2928 2926 2924 2922 2920 2919 2917 2915 2914 2913 2912 2910 2908 2907 2905 2904 2902 2900 2898 2896 2894 2892 2890 2889 2888 2887 2886 2885 2884 2883 2882 2881 2880 2879 2878 2877 2876 2875 2874 2873 2872 2871 2870 2870 2869 2868 2867 2866 2865 2864 2863 2862 2861 2860 2859 2858 2857 2856 2855 2854
2982 2979 2976 2975 2973 2970 2967 2964 2961 2960 2958 2955 2953 2950 2949 2947 2945 2943 2941 2940 2938 2936 2934 2932 2930 2928 2926 2924 2921 2920 2918 2917 2915 2914 2913 2912 2911 2909 2907 2906 2904 2902 2901 2899 2897 2894 2892 2891 2890 2889 2888 2887 2886 2885 2884 2883 2882 2880 2880 2879 2878 2877 2875 2875 2874 2873 2872 2871 2870 2869 2868 2867 2866 2865 2864 2863 2862 2861 2860 2859 2858 2857 2856 2855 2854 2853
2981 2978 2975 2972 2970 2968 2965 2963 2960 2957 2955 2953 2951 2949 2947 2945 2943 2940 2938 2936 2935 2933 2932 2930 2928 2926 2924 2922 2920 2918 2917 2915 2914 2913 2912 2911 2910 2908 2906 2905 2903 2901 2899 2897 2895 2893 2892 2890 2889 2888 2887 2886 2885 2884 2883 2882 2881 2880 2879 2878 2877 2876 2875 2874 2873 2872 2871 2870 2870 2869 2868 2866 2865 2865 2863 2862 2861 2860 2859 2858 2857 2856 2855 2854 2853 2852
2978 2975 2973 2970 2968 2966 2963 2960 2958 2955 2953 2951 2949 2947 2945 2944 2941 2939 2936 2934 2933 2931 2930 2928 2926 2925 2923 2921 2919 2917 2916 2915 2914 2913 2911 2910 2909 2907 2905 2904 2902 2900 2898 2896 2894 2893 2891 2890 2889 2888 2887 2886 2885 2884 2883 2882 2881 2880 2879 2878 2877 2876 2875 2874 2873 2872 2871 2870 2869 2868 2867 2866 2865 2864 2863 2862 2860 2860 2859 2857 2856 2855 2855 2854 2853 2852
2975 2973 2970 2968 2966 2964 2961 2959 2956 2953 2950 2948 2947 2945 2943 2942 2940 2938 2935 2933 2931 2930 2928 2927 2925 2924 2922 2921 2919 2918 2916 2915 2914 2913 2911 2910 2908 2906 2904 2902 2901 2899 2897 2895 2894 2892 2891 2890 2889 2888 2887 2886 2885 2884 2883 2882 2881 2880 2879 2878 2877 2876 2875 2874 2873 2872 2871 2870 2869 2868 2867 2866 2865 2864 2862 2861 2860 2859 2858 2857 2856 2855 2854 2853 2852 2852
2974 2971 2969 2966 2964 2962 2960 2957 2955 2952 2949 2947 2945 2943 2941 2940 2938 2936 2934 2932 2930 2929 2928 2926 2925 2924 2922 2921 2920 2918 2917 2915 2914 2912 2910 2909 2907 2905 2904 2902 2900 2898 2897 2895 2894 2892 2891 2890 2890 2888 2887 2886 2885 2884 2883 2882 2881 2880 2879 2878 2877 2876 2875 2874 2873 2872 2871 2870 2869 2868 2866 2865 2864 2863 2862 2861 2860 2859 2858 2857 2856 2855 2854 2853 2852 2851
2972 2970 2967 2965 2963 2960 2958 2956 2954 2951 2948 2946 2944 2942 2940 2939 2937 2935 2933 2931 2930 2928 2927 2926 2925 2924 2922 2921 2919 2918 2916 2915 2914 2912 2910 2908 2906 2905 2903 2901 2900 2898 2896 2895 2894 2893 2892 2891 2890 2889 2887 2886 2885 2885 2884 2882 2881 2880 2879 2878 2877 2876 2875 2874 2873 2872 2871 2870 2869 2867 2866 2865 2864 2863 2862 2860 2860 2858 2857 2856 2855 2854 2853 2852 2851 2850
2970 2968 2965 2963 2961 2959 2957 2955 2952 2950 2947 2945 2942 2940 2939 2937 2935 2933 2932 2930 2929 2928 2926 2925 2924 2922 2921 2920 2919 2917 2915 2914 2913 2911 2909 2907 2905 2904 2902 2900 2899 2898 2896 2895 2894 2893 2892 2891 2890 2889 2888 2887 2886 2885 2884 2883 2881 2880 2880 2878 2877 2876 2875 2874 2873 2872 2871 2870 2868 2867 2866 2865 2864 2863 2861 2860 2859 2858 2856 2855 2855 2853 2852 2851 2850 2849
2969 2967 2965 2962 2960 2958 2955 2953 2951 2949 2946 2944 2941 2940 2938 2936 2934 2932 2930 2929 2928 2926 2925 2924 2923 2921 2920 2919 2918 2916 2915 2913 2912 2910 2909 2907 2905 2903 2902 2900 2899 2898 2897 2895 2894 2893 2892 2891 2890 2889 2888 2887 2886 2885 2884 2883 2882 2881 2880 2879 2877 2876 2875 2874 2873 2872 2870 2869 2868 2867 2866 2865 2863 2862 2861 2860 2858 2857 2856 2855 2854 2852 2851 2850 2849 2848
2968 2966 2963 2961 2959 2956 2954 2951 2949 2947 2945 2942 2940 2938 2936 2935 2933 2931 2929 2928 2927 2925 2924 2923 2922 2920 2920 2919 2917 2916 2915 2913 2911 2910 2908 2906 2905 2903 2901 2900 2899 2898 2897 2896 2895 2893 2892 2891 2890 2890 2889 2887 2886 2885 2884 2883 2882 2881 2880 2879 2878 2876 2875 2874 2873 2871 2870 2869 2868 2867 2865 2864 2863 2862 2860 2859 2858 2856 2855 2854 2853 2851 2850 2849 2848 2847
2967 2964 2961 2959 2957 2955 2952 2950 2948 2945 2943 2941 2939 2936 2935 2933 2931 2930 2928 2927 2926 2925 2923 2922 2921 2920 2919 2917 2916 2915 2914 2912 2910 2909 2907 2905 2904 2903 2901 2900 2899 2898 2897 2896 2895 2894 2893 2891 2890 2890 2889 2888 2887 2885 2885 2884 2883 2881 2880 2879 2878 2877 2875 2874 2873 2872 2870 2869 2868 2867 2865 2864 2863 2861 2860 2859 2857 2856 2854 2853 2852 2850 2849 2848 2847 2845
2965 2963 2960 2957 2955 2952 2950 2948 2946 2944 2941 2939 2937 2935 2933 2931 2930 2928 2927 2926 2925 2924 2923 2921 2920 2919 2918 2916 2915 2914 2912 2911 2910 2908 2906 2905 2904 2903 2901 2900 2899 2898 2897 2896 2895 2894 2894 2892 2891 2890 2889 2888 2887 2886 2885 2884 2883 2882 2881 2880 2878 2877 2876 2875 2873 2872 2871 2870 2868 2867 2865 2864 2863 2861 2860 2858 2857 2855 2854 2852 2850 2849 2847 2846 2845 2844
2964 2961 2958 2955 2953 2951 2949 2946 2944 2941 2939 2937 2935 2934 2932 2930 2929 2928 2926 2925 2924 2923 2922 2921 2920 2919 2917 2916 2915 2913 2912 2910 2909 2908 2906 2905 2904 2903 2902 2900 2900 2899 2897 2896 2895 2894 2893 2892 2891 2890 2889 2888 2887 2886 2885 2884 2883 2882 2881 2880 2879 2877 2876 2875 2874 2872 2871 2870 2869 2867 2866 2865 2863 2861 2860 2858 2856 2855 2853 2851 2849 2847 2846 2845 2844 2842
2961 2959 2956 2953 2951 2949 2947 2945 2943 2940 2938 2936 2934 2932 2931 2930 2928 2927 2926 2925 2924 2923 2921 2920 2920 2918 2917 2916 2915 2913 2912 2910 2909 2908 2906 2905 2904 2903 2902 2901 2900 2899 2898 2897 2896 2895 2893 2892 2891 2890 2889 2888 2887 2886 2885 2884 2883 2882 2881 2880 2879 2878 2877 2875 2874 2873 2871 2870 2869 2868 2866 2865 2863 2861 2859 2857 2856 2854 2852 2850 2849 2847 2845 2843 2842 2841
2959 2957 2954 2951 2949 2947 2945 2944 2941 2939 2936 2935 2933 2931 2930 2929 2928 2926 2925 2924 2923 2922 2921 2920 2919 2918 2916 2915 2914 2913 2912 2910 2909 2908 2907 2905 2904 2903 2902 2901 2900 2900 2899 2897 2896 2895 2894 2893 2892 2891 2890 2889 2887 2886 2885 2884 2883 2882 2881 2880 2879 2878 2877 2875 2874 2873 2872 2870 2869 2867 2866 2864 2863 2861 2859 2857 2855 2853 2851 2850 2848 2846 2844 2842 2841 2840
2957 2955 2952 2950 2948 2945 2944 2942 2940 2937 2935 2934 2932 2931 2930 2928 2927 2926 2925 2924 2923 2922 2921 2920 2918 2917 2916 2915 2913 2912 2911 2910 2909 2908 2907 2905 2905 2903 2902 2901 2900 2900 2899 2898 2897 2896 2895 2894 2892 2891 2890 2890 2888 2887 2886 2885 2883 2882 2881 2880 2879 2878 2877 2876 2875 2873 2872 2870 2869 2867 2865 2864 2862 2860 2858 2856 2854 2852 2850 2848 2847 2845 2843 2842 2840 2839
2956 2953 2951 2949 2946 2944 2942 2940 2938 2936 2934 2933 2931 2930 2929 2928 2927 2926 2925 2924 2923 2922 2921 2919 2918 2917 2915 2914 2913 2912 2911 2910 2909 2908 2907 2906 2905 2904 2902 2901 2900 2900 2899 2898 2897 2896 2895 2894 2893 2892 2891 2890 2889 2888 2887 2885 2884 2883 2882 2880 2880 2878 2877 2876 2875 2873 2872 2870 2868 2866 2865 2863 2861 2859 2857 2855 2853 2851 2849 2847 2846 2844 2843 2841 2839 2838
2955 2952 2950 2947 2945 2943 2941 2939 2937 2935 2934 2932 2931 2930 2928 2927 2926 2925 2925 2924 2923 2922 2921 2919 2918 2917 2915 2914 2913 2912 2911 2910 2909 2908 2907 2906 2905 2904 2903 2902 2901 2900 2899 2898 2897 2896 2895 2894 2893 2892 2891 2890 2889 2888 2887 2886 2885 2883 2882 2881 2880 2879 2877 2876 2875 2873 2871 2870 2868 2866 2864 2862 2860 2858 2856 2855 2852 2850 2848 2846 2845 2843 2842 2840 2839 2837
2953 2950 2948 2945 2943 2941 2940 2938 2936 2935 2933 2931 2930 2929 2928 2927 2926 2925 2925 2924 2923 2922 2921 2920 2918 2917 2916 2915 2913 2912 2911 2910 2909 2908 2907 2906 2905 2905 2904 2902 2901 2900 2900 2898 2897 2896 2895 2895 2894 2893 2891 2890 2890 2889 2887 2886 2885 2884 2882 2881 2880 2879 2877 2876 2875 2873 2871 2870 2868 2865 2863 2861 2859 2857 2855 2853 2852 2850 2848 2846 2844 2842 2841 2840 2838 2836
2952 2949 2947 2945 2942 2940 2939 2937 2935 2934 2932 2931 2930 2929 2928 2927 2926 2925 2925 2924 2923 2922 2921 2920 2919 2917 2916 2915 2914 2913 2911 2910 2910 2909 2908 2907 2906 2905 2904 2903 2902 2901 2900 2899 2898 2897 2896 2895 2894 2893 2892 2891 2890 2889 2888 2887 2885 2884 2883 2882 2880 2879 2878 2876 2875 2873 2871 2869 2867 2865 2863 2861 2859 2856 2854 2852 2850 2849 2847 2845 2843 2842 2840 2839 2837 2836
2950 2948 2945 2943 2941 2940 2938 2936 2935 2933 2931 2930 2929 2928 2927 2927 2926 2925 2925 2924 2923 2922 2921 2920 2920 2918 2917 2915 2914 2913 2912 2911 2910 2909 2908 2907 2906 2905 2905 2904 2903 2901 2900 2899 2898 2897 2896 2895 2894 2893 2892 2891 2890 2889 2888 2887 2886 2885 2884 2882 2881 2880 2878 2876 2875 2873 2871 2869 2867 2865 2863 2860 2858 2856 2854 2851 2849 2847 2845 2844 2842 2840 2839 2837 2836 2835
2949 2946 2944 2942 2940 2938 2937 2935 2934 2932 2931 2930 2929 2928 2927 2927 2926 2926 2925 2925 2924 2923 2922 2921 2920 2920 2918 2917 2915 2913 2912 2911 2910 2910 2909 2908 2907 2906 2905 2904 2903 2902 2901 2900 2899 2897 2896 2895 2895 2894 2893 2891 2890 2890 2888 2887 2886 2885 2884 2882 2881 2880 2878 2876 2875 2873 2871 2869 2867 2865 2863 2860 2858 2855 2853 2851 2849 2846 2844 2842 2840 2839 2837 2836 2835 2834
2948 2945 2943 2941 2939 2937 2936 2935 2933 2932 2930 2930 2929 2928 2927 2927 2926 2926 2925 2925 2924 2923 2922 2922 2921 2920 2919 2918 2916 2914 2913 2912 2911 2910 2909 2908 2907 2906 2905 2905 2903 2902 2901 2900 2899 2898 2897 2896 2895 2894 2893 2892 2891 2890 2889 2887 2886 2885 2884 2882 2881 2880 2878 2877 2875 2873 2871 2869 2867 2865 2863 2860 2857 2855 2853 2850 2848 2846 2843 2841 2840 2838 2836 2835 2834 2833
2946 2944 2942 2940 2939 2937 2935 2934 2932 2931 2930 2929 2929 2928 2928 2927 2927 2926 2925 2925 2924 2923 2922 2921 2920 2920 2919 2918 2916 2915 2913 2912 2911 2910 2910 2909 2908 2907 2906 2905 2904 2903 2902 2900 2900 2898 2897 2896 2895 2894 2893 2892 2891 2890 2889 2888 2887 2885 2884 2882 2881 2879 2878 2876 2875 2873 2871 2869 2867 2865 2863 2860 2857 2855 2852 2850 2848 2845 2843 2841 2840 2838 2836 2835 2834 2833
2945 2943 2941 2940 2938 2936 2935 2933 2932 2931 2930 2929 2929 2928 2928 2927 2927 2926 2925 2925 2924 2923 2922 2921 2920 2920 2919 2918 2917 2915 2914 2913 2912 2911 2910 2909 2908 2907 2906 2905 2904 2903 2902 2901 2900 2899 2898 2897 2896 2895 2894 2893 2892 2891 2890 2889 2887 2886 2884 2882 2881 2879 2878 2876 2874 2873 2871 2869 2867 2865 2863 2860 2858 2855 2852 2850 2848 2845 2844 2842 2840 2838 2836 2835 2834 2832
2945 2943 2941 2939 2937 2935 2934 2933 2932 2931 2930 2929 2929 2928 2928 2927 2927 2926 2925 2925 2924 2923 2922 2921 2920 2920 2919 2918 2917 2916 2915 2914 2912 2911 2910 2909 2908 2907 2906 2905 2904 2903 2902 2901 2900 2900 2899 2897 2896 2895 2894 2893 2892 2891 2890 2889 2888 2886 2885 2883 2881 2880 2878 2876 2874 2873 2871 2869 2867 2865 2863 2861 2858 2856 2853 2850 2848 2846 2844 2842 2840 2838 2837 2835 2834 2832
2944 2942 2940 2938 2936 2935 2934 2933 2931 2930 2930 2930 2929 2929 2928 2928 2927 2926 2925 2925 2924 2923 2922 2921 2920 2919 2919 2918 2917 2916 2915 2914 2913 2912 2911 2910 2909 2908 2907 2905 2905 2904 2903 2902 2901 2900 2899 2898 2897 2896 2895 2894 2893 2892 2891 2890 2888 2887 2885 2884 2882 2880 2879 2876 2875 2873 2870 2869 2867 2865 2863 2861 2859 2856 2854 2851 2849 2846 2844 2842 2840 2838 2837 2835 2834 2832
2943 2941 2940 2938 2936 2935 2933 2932 2931 2931 2930 2930 2929 2929 2928 2928 2927 2926 2925 2925 2924 2923 2922 2921 2920 2920 2919 2918 2917 2916 2915 2915 2914 2913 2911 2910 2910 2908 2907 2906 2905 2904 2903 2902 2901 2900 2900 2899 2898 2897 2896 2895 2894 2893 2891 2890 2888 2887 2886 2884 2883 2881 2879 2877 2875 2873 2871 2869 2866 2864 2862 2860 2858 2856 2854 2852 2850 2847 2845 2842 2840 2838 2836 2835 2833 2832
2943 2941 2939 2938 2936 2935 2933 2932 2931 2931 2930 2930 2930 2929 2928 2928 2927 2926 2925 2925 2924 2923 2922 2922 2921 2920 2919 2918 2917 2916 2916 2915 2914 2913 2912 2911 2910 2909 2908 2906 2905 2904 2903 2902 2902 2901 2900 2899 2898 2897 2896 2895 2895 2893 2892 2890 2889 2887 2886 2885 2883 2881 2879 2877 2875 2873 2871 2869 2866 2864 2862 2859 2857 2855 2854 2852 2850 2847 2845 2843 2840 2838 2836 2835 2833 2832
2942 2940 2939 2937 2936 2934 2933 2932 2931 2931 2930 2930 2930 2929 2928 2928 2927 2926 2925 2925 2924 2923 2922 2922 2921 2920 2920 2919 2918 2917 2916 2915 2914 2914 2913 2912 2910 2910 2908 2907 2906 2905 2904 2903 2902 2901 2901 2900 2899 2898 2897 2896 2895 2894 2892 2891 2889 2888 2886 2885 2883 2881 2880 2878 2875 2874 2871 2869 2867 2864 2862 2859 2857 2855 2853 2851 2849 2847 2845 2843 2841 2839 2836 2835 2833 2831
2941 2940 2938 2937 2935 2934 2933 2932 2931 2931 2930 2930 2930 2929 2929 2928 2927 2926 2926 2925 2924 2924 2923 2922 2921 2920 2920 2919 2918 2917 2916 2916 2915 2914 2913 2912 2911 2910 2909 2908 2906 2905 2904 2903 2902 2902 2901 2900 2900 2899 2897 2896 2895 2894 2893 2891 2890 2888 2886 2885 2883 2881 2880 2878 2876 2874 2871 2869 2867 2864 2862 2859 2856 2854 2852 2850 2849 2847 2845 2843 2841 2839 2837 2835 2833 2831
2941 2940 2938 2936 2935 2934 2933 2932 2931 2931 2930 2930 2930 2929 2929 2928 2927 2927 2926 2925 2925 2924 2923 2922 2921 2921 2920 2919 2919 2918 2917 2916 2915 2915 2913 2912 2911 2910 2909 2908 2907 2906 2905 2904 2903 2902 2901 2900 2900 2899 2898 2896 2895 2894 2893 2891 2890 2888 2887 2885 2883 2881 2880 2878 2876 2874 2871 2869 2866 2864 2861 2859 2856 2854 2851 2849 2848 2846 2845 2843 2841 2839 2836 2835 2833 2831